QPF
0.03 0.04 0.04 0.03 0.02 0.02 0.01 0.02 0.02 0.01 0.01 0.01 0.02 0.01 0.01 0.02 0.04 0.06 0.08 0.08 0.08 0.06 0.05 0.06 0.04 0.04 0.06 0.06 0.05 0.05 0.05 0.05 0.03 0.03 0.03 0.02 0.02 0.02 0.03 0.04 0.05 0.05 0.04
0.04 0.04 0.03 0.03 0.03 0.03 0.03 0.02 0.01 0.01 0.01 0.01 0.01 0.01 0.01 0.01 0.01 0.03 0.05 0.06 0.07 0.08 0.06 0.05 0.03 0.02 0.04 0.04 0.03 0.02 0.02 0.02 0.02 0.02 0.02 0.04 0.03 0.02 0.02 0.03 0.03 0.02 0.02
0.03 0.03 0.04 0.04 0.03 0.03 0.02 0.02 0.02 0.01 0.02 0.02 0.03 0.02 0.02 0.01 0.01 0.02 0.03 0.04 0.05 0.07 0.06 0.05 0.03 0.03 0.03 0.03 0.04 0.02 0.02 0.01 0.01 0.02 0.02 0.03 0.03 0.03 0.03 0.03 0.04 0.03 0.03
0.06 0.06 0.04 0.03 0.02 0.02 0.02 0.03 0.03 0.03 0.03 0.02 0.02 0.02 0.02 0.01 0.01 0.02 0.02 0.02 0.03 0.05 0.07 0.05 0.04 0.04 0.03 0.03 0.03 0.02 0.02 0.02 0.02 0.01 0.01 0.02 0.02 0.04 0.04 0.04 0.04 0.04 0.04
0.03 0.04 0.06 0.03 0.02 0.03 0.04 0.04 0.04 0.04 0.04 0.03 0.03 0.03 0.03 0.03 0.03 0.03 0.02 0.02 0.02 0.04 0.06 0.06 0.04 0.04 0.04 0.03 0.03 0.03 0.04 0.03 0.02 0.01 0.01 0.02 0.02 0.02 0.03 0.03 0.04 0.03 0.03
0.02 0.01 0.01 0.02 0.03 0.03 0.04 0.04 0.05 0.05 0.05 0.05 0.05 0.05 0.05 0.04 0.03 0.03 0.02 0.02 0.02 0.03 0.05 0.10 0.09 0.06 0.05 0.05 0.04 0.04 0.03 0.03 0.02 0.02 0.02 0.02 0.02 0.02 0.02 0.02 0.03 0.03 0.03
0.01 0.01 0.01 0.01 0.02 0.02 0.04 0.05 0.05 0.05 0.05 0.05 0.04 0.05 0.05 0.04 0.04 0.02 0.01 0.01 0.02 0.03 0.04 0.09 0.13 0.11 0.08 0.06 0.04 0.03 0.02 0.02 0.02 0.03 0.03 0.02 0.03 0.03 0.03 0.04 0.03 0.03 0.03
0.02 0.02 0.02 0.02 0.02 0.03 0.04 0.08 0.09 0.09 0.07 0.06 0.05 0.05 0.05 0.04 0.05 0.03 0.02 0.02 0.01 0.02 0.02 0.04 0.06 0.05 0.04 0.04 0.03 0.02 0.01 0.01 0.02 0.02 0.02 0.03 0.03 0.03 0.05 0.05 0.05 0.04 0.03
0.02 0.02 0.02 0.03 0.03 0.04 0.05 0.08 0.12 0.12 0.12 0.11 0.10 0.10 0.09 0.08 0.07 0.04 0.03 0.02 0.01 0.02 0.02 0.03 0.02 0.02 0.03 0.02 0.01 0.01 0.01 0.01 0.01 0.02 0.03 0.03 0.03 0.04 0.05 0.05 0.06 0.06 0.05
0.01 0.02 0.03 0.03 0.04 0.05 0.07 0.09 0.10 0.09 0.10 0.11 0.12 0.14 0.15 0.16 0.11 0.05 0.03 0.02 0.01 0.02 0.02 0.02 0.02 0.02 0.02 0.01 0.01 0.00 0.00 0.00 0.01 0.02 0.03 0.03 0.03 0.04 0.05 0.04 0.05 0.05 0.05
0.01 0.03 0.04 0.04 0.04 0.05 0.06 0.07 0.07 0.09 0.11 0.12 0.12 0.13 0.11 0.09 0.07 0.05 0.03 0.02 0.01 0.01 0.02 0.03 0.03 0.03 0.03 0.02 0.01 0.00 0.01 0.01 0.01 0.01 0.02 0.02 0.02 0.03 0.04 0.04 0.04 0.04 0.05
0.02 0.03 0.04 0.04 0.04 0.04 0.05 0.05 0.07 0.09 0.10 0.10 0.10 0.08 0.05 0.04 0.04 0.04 0.03 0.02 0.01 0.01 0.02 0.03 0.03 0.03 0.04 0.03 0.02 0.01 0.02 0.02 0.02 0.01 0.01 0.02 0.02 0.01 0.02 0.03 0.03 0.03 0.04
0.03 0.03 0.03 0.03 0.03 0.04 0.04 0.04 0.04 0.05 0.06 0.06 0.07 0.05 0.03 0.02 0.02 0.02 0.02 0.03 0.03 0.02 0.02 0.04 0.02 0.02 0.03 0.03 0.04 0.03 0.03 0.02 0.02 0.02 0.01 0.02 0.02 0.02 0.02 0.02 0.03 0.03 0.04
0.01 0.01 0.02 0.02 0.03 0.04 0.04 0.03 0.04 0.05 0.06 0.06 0.06 0.06 0.04 0.03 0.02 0.02 0.02 0.03 0.04 0.04 0.02 0.03 0.03 0.03 0.03 0.03 0.04 0.04 0.04 0.03 0.03 0.02 0.02 0.02 0.02 0.02 0.02 0.02 0.02 0.02 0.02
0.01 0.01 0.01 0.01 0.02 0.03 0.04 0.03 0.03 0.05 0.07 0.08 0.08 0.08 0.09 0.08 0.06 0.04 0.03 0.02 0.03 0.04 0.05 0.05 0.04 0.03 0.03 0.02 0.02 0.03 0.03 0.04 0.04 0.03 0.02 0.02 0.01 0.01 0.01 0.01 0.02 0.02 0.01
0.01 0.02 0.02 0.02 0.03 0.03 0.03 0.04 0.03 0.03 0.04 0.06 0.09 0.11 0.13 0.11 0.07 0.04 0.03 0.03 0.03 0.04 0.05 0.05 0.04 0.04 0.03 0.02 0.01 0.02 0.02 0.02 0.03 0.03 0.03 0.03 0.02 0.02 0.01 0.01 0.02 0.02 0.02
0.01 0.02 0.03 0.04 0.03 0.02 0.02 0.02 0.02 0.02 0.02 0.04 0.05 0.07 0.08 0.08 0.06 0.05 0.04 0.04 0.04 0.03 0.02 0.02 0.02 0.03 0.02 0.02 0.01 0.01 0.01 0.02 0.02 0.03 0.03 0.04 0.03 0.03 0.02 0.02 0.02 0.02 0.03
0.02 0.03 0.03 0.03 0.03 0.01 0.02 0.02 0.02 0.02 0.02 0.02 0.02 0.03 0.02 0.02 0.02 0.02 0.03 0.03 0.03 0.02 0.02 0.02 0.01 0.01 0.01 0.01 0.01 0.01 0.01 0.01 0.02 0.03 0.03 0.03 0.03 0.03 0.02 0.02 0.02 0.03 0.03
0.03 0.03 0.02 0.02 0.02 0.01 0.01 0.01 0.01 0.02 0.02 0.02 0.01 0.02 0.01 0.01 0.01 0.01 0.01 0.02 0.02 0.02 0.01 0.01 0.01 0.00 0.00 0.00 0.00 0.01 0.01 0.01 0.02 0.03 0.03 0.03 0.03 0.03 0.03 0.03 0.03 0.03 0.04
0.03 0.02 0.02 0.02 0.02 0.02 0.02 0.02 0.02 0.02 0.02 0.02 0.02 0.02 0.01 0.01 0.01 0.01 0.01 0.01 0.01 0.01 0.01 0.01 0.01 0.00 0.00 0.00 0.00 0.01 0.01 0.01 0.01 0.03 0.03 0.03 0.03 0.04 0.04 0.04 0.04 0.04 0.04
0.02 0.02 0.03 0.03 0.02 0.02 0.02 0.03 0.03 0.03 0.03 0.03 0.02 0.02 0.01 0.01 0.01 0.01 0.01 0.01 0.01 0.01 0.01 0.01 0.01 0.01 0.01 0.01 0.01 0.01 0.01 0.01 0.01 0.01 0.01 0.02 0.03 0.04 0.04 0.05 0.05 0.05 0.05
0.01 0.02 0.04 0.06 0.05 0.04 0.03 0.03 0.02 0.02 0.02 0.02 0.01 0.01 0.01 0.01 0.01 0.01 0.02 0.03 0.03 0.03 0.02 0.01 0.01 0.01 0.01 0.01 0.02 0.02 0.02 0.02 0.02 0.01 0.01 0.01 0.02 0.04 0.06 0.07 0.09 0.09 0.08
0.01 0.01 0.02 0.04 0.04 0.05 0.04 0.03 0.03 0.02 0.02 0.01 0.01 0.01 0.01 0.01 0.01 0.02 0.03 0.04 0.06 0.06 0.05 0.04 0.02 0.01 0.01 0.02 0.02 0.03 0.04 0.04 0.03 0.03 0.02 0.02 0.02 0.03 0.05 0.06 0.07 0.10 0.11
0.01 0.01 0.02 0.03 0.03 0.04 0.04 0.03 0.03 0.04 0.04 0.03 0.02 0.01 0.01 0.02 0.02 0.03 0.03 0.03 0.03 0.03 0.03 0.03 0.04 0.04 0.04 0.02 0.02 0.02 0.03 0.03 0.04 0.04 0.04 0.03 0.03 0.03 0.05 0.08 0.08 0.07 0.06
0.01 0.01 0.02 0.01 0.01 0.01 0.01 0.01 0.01 0.01 0.01 0.01 0.01 0.01 0.01 0.01 0.02 0.03 0.04 0.04 0.03 0.02 0.02 0.02 0.02 0.03 0.03 0.03 0.03 0.03 0.02 0.02 0.02 0.02 0.03 0.04 0.04 0.03 0.03 0.04 0.05 0.07 0.07
0.01 0.01 0.01 0.00 0.00 0.00 0.00 0.01 0.01 0.01 0.01 0.01 0.01 0.01 0.01 0.01 0.02 0.03 0.04 0.05 0.04 0.03 0.03 0.02 0.02 0.02 0.02 0.02 0.02 0.02 0.02 0.02 0.02 0.02 0.03 0.04 0.05 0.04 0.03 0.03 0.03 0.02 0.03
MSLP
1009.36 1009.43 1009.52 1009.59 1009.62 1009.58 1009.47 1009.31 1009.14 1008.97 1008.84 1008.73 1008.66 1008.59 1008.50 1008.39 1008.23 1008.06 1007.87 1007.72 1007.63 1007.63 1007.75 1007.97 1008.30 1008.71 1009.17 1009.65 1010.14 1010.61 1011.06 1011.51 1011.94 1012.37 1012.80 1013.23 1013.67 1014.11 1014.53 1014.95 1015.36 1015.75 1016.12
1009.40 1009.43 1009.47 1009.50 1009.48 1009.39 1009.25 1009.06 1008.87 1008.69 1008.53 1008.42 1008.33 1008.24 1008.15 1008.03 1007.87 1007.69 1007.51 1007.34 1007.24 1007.21 1007.29 1007.48 1007.76 1008.13 1008.56 1009.02 1009.50 1009.98 1010.46 1010.93 1011.39 1011.87 1012.35 1012.83 1013.31 1013.80 1014.27 1014.73 1015.17 1015.59 1015.98
1009.50 1009.53 1009.55 1009.53 1009.46 1009.32 1009.13 1008.90 1008.66 1008.44 1008.25 1008.11 1008.00 1007.90 1007.80 1007.68 1007.54 1007.36 1007.19 1007.03 1006.92 1006.88 1006.94 1007.10 1007.35 1007.67 1008.06 1008.49 1008.94 1009.40 1009.87 1010.33 1010.80 1011.28 1011.77 1012.28 1012.80 1013.32 1013.84 1014.34 1014.83 1015.30 1015.72
1009.65 1009.69 1009.71 1009.67 1009.55 1009.35 1009.10 1008.80 1008.51 1008.24 1008.01 1007.83 1007.70 1007.60 1007.50 1007.39 1007.25 1007.10 1006.94 1006.80 1006.69 1006.65 1006.68 1006.81 1007.02 1007.30 1007.63 1008.01 1008.41 1008.82 1009.24 1009.66 1010.10 1010.56 1011.04 1011.54 1012.07 1012.62 1013.18 1013.74 1014.28 1014.81 1015.29
1009.81 1009.89 1009.91 1009.84 1009.68 1009.42 1009.10 1008.74 1008.39 1008.07 1007.80 1007.60 1007.45 1007.35 1007.25 1007.16 1007.05 1006.92 1006.78 1006.64 1006.54 1006.48 1006.49 1006.57 1006.73 1006.95 1007.21 1007.51 1007.84 1008.17 1008.52 1008.88 1009.27 1009.68 1010.12 1010.62 1011.15 1011.71 1012.31 1012.92 1013.53 1014.13 1014.69
1009.93 1010.04 1010.06 1009.97 1009.77 1009.46 1009.07 1008.66 1008.25 1007.89 1007.60 1007.38 1007.24 1007.14 1007.07 1006.99 1006.91 1006.80 1006.67 1006.54 1006.43 1006.34 1006.31 1006.33 1006.42 1006.55 1006.73 1006.95 1007.18 1007.43 1007.70 1007.99 1008.31 1008.67 1009.09 1009.56 1010.09 1010.68 1011.31 1011.97 1012.65 1013.31 1013.95
1009.97 1010.10 1010.11 1009.99 1009.74 1009.38 1008.95 1008.49 1008.06 1007.67 1007.37 1007.16 1007.03 1006.96 1006.91 1006.87 1006.81 1006.72 1006.60 1006.46 1006.31 1006.18 1006.09 1006.03 1006.03 1006.08 1006.17 1006.29 1006.44 1006.61 1006.81 1007.04 1007.31 1007.64 1008.04 1008.51 1009.05 1009.66 1010.32 1011.03 1011.76 1012.48 1013.18
1009.91 1010.02 1010.01 1009.86 1009.57 1009.17 1008.70 1008.22 1007.77 1007.39 1007.10 1006.91 1006.81 1006.78 1006.76 1006.75 1006.71 1006.63 1006.50 1006.34 1006.15 1005.96 1005.79 1005.66 1005.56 1005.52 1005.52 1005.56 1005.64 1005.76 1005.92 1006.13 1006.39 1006.72 1007.13 1007.61 1008.18 1008.82 1009.52 1010.26 1011.02 1011.78 1012.51
1009.74 1009.82 1009.77 1009.57 1009.24 1008.81 1008.32 1007.83 1007.39 1007.03 1006.77 1006.62 1006.56 1006.57 1006.59 1006.61 1006.58 1006.50 1006.36 1006.16 1005.92 1005.67 1005.43 1005.21 1005.03 1004.91 1004.85 1004.84 1004.89 1005.00 1005.16 1005.39 1005.69 1006.06 1006.51 1007.04 1007.64 1008.32 1009.04 1009.80 1010.57 1011.33 1012.06
1009.49 1009.52 1009.42 1009.17 1008.81 1008.35 1007.86 1007.38 1006.95 1006.62 1006.40 1006.29 1006.28 1006.32 1006.38 1006.41 1006.40 1006.32 1006.16 1005.93 1005.64 1005.34 1005.03 1004.75 1004.52 1004.35 1004.25 1004.24 1004.30 1004.44 1004.66 1004.95 1005.32 1005.77 1006.29 1006.89 1007.54 1008.23 1008.97 1009.71 1010.46 1011.18 1011.86
1009.20 1009.16 1009.00 1008.71 1008.31 1007.85 1007.36 1006.89 1006.49 1006.20 1006.02 1005.95 1005.97 1006.04 1006.12 1006.18 1006.17 1006.09 1005.92 1005.67 1005.36 1005.02 1004.68 1004.37 1004.11 1003.94 1003.85 1003.86 1003.97 1004.19 1004.49 1004.88 1005.36 1005.90 1006.51 1007.16 1007.85 1008.56 1009.28 1009.98 1010.66 1011.31 1011.89
1008.91 1008.79 1008.57 1008.24 1007.82 1007.35 1006.86 1006.42 1006.05 1005.79 1005.64 1005.59 1005.64 1005.73 1005.83 1005.90 1005.91 1005.84 1005.68 1005.43 1005.13 1004.79 1004.46 1004.15 1003.92 1003.77 1003.72 1003.79 1003.99 1004.29 1004.70 1005.20 1005.78 1006.41 1007.09 1007.79 1008.50 1009.20 1009.86 1010.49 1011.07 1011.60 1012.07
1008.63 1008.45 1008.17 1007.80 1007.36 1006.88 1006.41 1005.98 1005.63 1005.39 1005.26 1005.24 1005.30 1005.40 1005.52 1005.61 1005.64 1005.60 1005.47 1005.27 1005.00 1004.71 1004.42 1004.17 1003.99 1003.90 1003.92 1004.07 1004.35 1004.74 1005.24 1005.83 1006.49 1007.19 1007.91 1008.63 1009.31 1009.96 1010.55 1011.07 1011.53 1011.92 1012.26
1008.37 1008.11 1007.78 1007.38 1006.92 1006.44 1005.97 1005.56 1005.23 1005.00 1004.88 1004.86 1004.93 1005.05 1005.18 1005.30 1005.38 1005.39 1005.32 1005.19 1005.01 1004.81 1004.60 1004.44 1004.33 1004.32 1004.42 1004.65 1004.99 1005.45 1006.02 1006.66 1007.35 1008.07 1008.79 1009.47 1010.10 1010.66 1011.14 1011.54 1011.86 1012.12 1012.32
1008.10 1007.78 1007.40 1006.96 1006.49 1006.00 1005.54 1005.13 1004.81 1004.58 1004.46 1004.44 1004.52 1004.65 1004.81 1004.97 1005.11 1005.19 1005.23 1005.21 1005.15 1005.06 1004.97 1004.91 1004.90 1004.98 1005.15 1005.43 1005.82 1006.31 1006.88 1007.52 1008.20 1008.88 1009.54 1010.15 1010.69 1011.14 1011.50 1011.77 1011.96 1012.09 1012.18
1007.79 1007.41 1006.98 1006.51 1006.02 1005.53 1005.07 1004.66 1004.34 1004.11 1003.99 1003.97 1004.05 1004.20 1004.39 1004.61 1004.82 1005.01 1005.16 1005.27 1005.34 1005.39 1005.43 1005.49 1005.58 1005.73 1005.95 1006.26 1006.66 1007.14 1007.68 1008.27 1008.88 1009.48 1010.05 1010.55 1010.97 1011.31 1011.55 1011.70 1011.79 1011.83 1011.84
1007.42 1006.98 1006.50 1006.01 1005.50 1005.00 1004.54 1004.14 1003.81 1003.58 1003.46 1003.44 1003.52 1003.69 1003.93 1004.20 1004.49 1004.79 1005.06 1005.31 1005.52 1005.71 1005.88 1006.05 1006.23 1006.44 1006.70 1007.01 1007.38 1007.81 1008.28 1008.79 1009.30 1009.80 1010.25 1010.64 1010.96 1011.19 1011.33 1011.40 1011.41 1011.40 1011.37
1006.96 1006.47 1005.96 1005.44 1004.93 1004.43 1003.98 1003.58 1003.26 1003.03 1002.91 1002.89 1002.98 1003.17 1003.44 1003.77 1004.14 1004.53 1004.91 1005.28 1005.62 1005.93 1006.22 1006.48 1006.73 1006.98 1007.25 1007.55 1007.88 1008.24 1008.63 1009.04 1009.45 1009.84 1010.19 1010.48 1010.71 1010.86 1010.94 1010.97 1010.96 1010.93 1010.91
1006.44 1005.92 1005.39 1004.87 1004.36 1003.88 1003.44 1003.05 1002.75 1002.52 1002.40 1002.39 1002.49 1002.69 1002.98 1003.35 1003.78 1004.23 1004.71 1005.17 1005.61 1006.02 1006.38 1006.71 1007.01 1007.29 1007.56 1007.83 1008.11 1008.41 1008.73 1009.05 1009.37 1009.68 1009.95 1010.18 1010.35 1010.47 1010.54 1010.56 1010.56 1010.56 1010.57
1005.91 1005.38 1004.85 1004.35 1003.86 1003.41 1003.00 1002.65 1002.36 1002.15 1002.04 1002.03 1002.13 1002.33 1002.63 1003.01 1003.46 1003.96 1004.48 1005.00 1005.50 1005.96 1006.38 1006.75 1007.08 1007.37 1007.64 1007.88 1008.13 1008.38 1008.63 1008.89 1009.16 1009.41 1009.65 1009.85 1010.02 1010.15 1010.24 1010.30 1010.34 1010.39 1010.45
1005.43 1004.91 1004.42 1003.96 1003.52 1003.12 1002.77 1002.45 1002.20 1002.02 1001.91 1001.91 1001.99 1002.18 1002.47 1002.84 1003.28 1003.78 1004.30 1004.84 1005.36 1005.84 1006.28 1006.67 1007.01 1007.30 1007.56 1007.79 1008.00 1008.22 1008.45 1008.68 1008.92 1009.16 1009.40 1009.62 1009.81 1009.98 1010.12 1010.24 1010.35 1010.46 1010.58
1005.07 1004.60 1004.17 1003.77 1003.41 1003.09 1002.79 1002.54 1002.34 1002.18 1002.09 1002.08 1002.15 1002.31 1002.56 1002.89 1003.30 1003.76 1004.26 1004.77 1005.28 1005.75 1006.19 1006.57 1006.91 1007.19 1007.44 1007.66 1007.87 1008.08 1008.29 1008.52 1008.76 1009.02 1009.28 1009.53 1009.77 1010.00 1010.21 1010.40 1010.57 1010.74 1010.90
1004.91 1004.51 1004.16 1003.85 1003.58 1003.34 1003.13 1002.95 1002.79 1002.67 1002.59 1002.57 1002.62 1002.75 1002.95 1003.23 1003.58 1003.98 1004.43 1004.89 1005.36 1005.80 1006.22 1006.59 1006.91 1007.19 1007.43 1007.64 1007.85 1008.05 1008.27 1008.50 1008.76 1009.03 1009.32 1009.61 1009.91 1010.19 1010.46 1010.70 1010.93 1011.14 1011.34
1004.99 1004.68 1004.42 1004.20 1004.03 1003.88 1003.75 1003.63 1003.52 1003.43 1003.37 1003.34 1003.37 1003.45 1003.60 1003.82 1004.10 1004.44 1004.83 1005.24 1005.66 1006.06 1006.45 1006.79 1007.10 1007.37 1007.60 1007.81 1008.02 1008.22 1008.43 1008.67 1008.93 1009.21 1009.52 1009.83 1010.15 1010.47 1010.77 1011.06 1011.32 1011.55 1011.76
1005.32 1005.09 1004.91 1004.79 1004.70 1004.63 1004.57 1004.51 1004.45 1004.38 1004.33 1004.29 1004.29 1004.34 1004.44 1004.60 1004.83 1005.11 1005.44 1005.80 1006.17 1006.54 1006.90 1007.23 1007.52 1007.78 1008.01 1008.21 1008.40 1008.59 1008.80 1009.02 1009.27 1009.54 1009.83 1010.14 1010.46 1010.78 1011.09 1011.38 1011.65 1011.88 1012.09
1005.89 1005.72 1005.62 1005.57 1005.54 1005.53 1005.52 1005.49 1005.46 1005.41 1005.35 1005.31 1005.28 1005.29 1005.36 1005.47 1005.65 1005.89 1006.18 1006.50 1006.85 1007.20 1007.54 1007.85 1008.14 1008.39 1008.61 1008.80 1008.98 1009.15 1009.33 1009.52 1009.73 1009.96 1010.22 1010.49 1010.78 1011.07 1011.35 1011.63 1011.88 1012.10 1012.29
Thickness
5754 5752 5749 5746 5745 5743 5740 5739 5738 5736 5735 5734 5733 5731 5730 5730 5729 5727 5726 5725 5724 5723 5723 5722 5721 5721 5719 5719 5718 5717 5715 5713 5709 5711 5713 5714 5714 5714 5714 5714 5714 5714 5714
5751 5748 5744 5742 5740 5738 5736 5735 5734 5732 5731 5729 5728 5726 5725 5724 5723 5722 5720 5719 5717 5717 5716 5715 5714 5715 5713 5713 5712 5711 5710 5709 5707 5704 5705 5705 5706 5707 5708 5708 5708 5709 5709
5747 5743 5739 5737 5735 5733 5732 5731 5729 5727 5726 5724 5723 5721 5719 5718 5717 5716 5715 5713 5712 5711 5711 5710 5709 5708 5706 5706 5705 5705 5704 5704 5703 5700 5698 5699 5699 5700 5700 5700 5701 5702 5703
5742 5738 5734 5733 5731 5729 5727 5726 5724 5722 5720 5718 5716 5715 5713 5712 5711 5710 5709 5708 5706 5706 5705 5704 5703 5702 5701 5700 5699 5698 5697 5696 5694 5692 5691 5691 5691 5692 5691 5690 5691 5693 5694
5737 5733 5730 5729 5727 5725 5722 5720 5718 5716 5714 5712 5709 5708 5707 5706 5705 5704 5703 5702 5700 5699 5699 5698 5698 5697 5697 5695 5694 5692 5691 5688 5687 5685 5684 5683 5682 5682 5682 5683 5682 5683 5685
5731 5728 5726 5724 5721 5719 5717 5714 5712 5709 5707 5705 5702 5701 5699 5699 5698 5698 5696 5694 5693 5692 5691 5690 5690 5690 5690 5689 5689 5687 5686 5683 5680 5678 5677 5676 5676 5676 5676 5676 5674 5673 5674
5726 5723 5720 5718 5715 5713 5712 5708 5705 5703 5700 5698 5696 5694 5692 5691 5691 5690 5689 5687 5686 5684 5683 5682 5683 5683 5681 5681 5680 5680 5679 5678 5677 5674 5671 5671 5671 5671 5671 5669 5668 5667 5668
5721 5718 5715 5713 5710 5708 5705 5702 5699 5697 5694 5691 5688 5686 5684 5683 5683 5682 5681 5680 5678 5677 5676 5675 5674 5673 5674 5673 5672 5670 5669 5669 5669 5669 5668 5667 5668 5667 5666 5665 5663 5662 5662
5715 5712 5710 5707 5704 5701 5698 5695 5693 5690 5687 5685 5681 5679 5677 5675 5675 5673 5672 5671 5669 5669 5669 5668 5667 5667 5667 5666 5664 5661 5660 5660 5662 5662 5662 5661 5661 5660 5659 5656 5654 5651 5650
5710 5708 5705 5702 5699 5695 5692 5690 5687 5684 5681 5678 5675 5673 5671 5668 5667 5665 5664 5663 5661 5660 5661 5661 5661 5661 5660 5658 5656 5653 5651 5652 5652 5653 5653 5652 5652 5651 5651 5648 5646 5642 5640
5706 5703 5699 5696 5693 5690 5687 5684 5681 5678 5674 5671 5669 5666 5664 5661 5659 5659 5657 5654 5653 5652 5652 5652 5653 5653 5653 5651 5649 5648 5647 5646 5644 5644 5643 5642 5642 5641 5641 5640 5639 5636 5634
5699 5695 5691 5688 5686 5684 5679 5676 5674 5670 5667 5664 5661 5659 5657 5655 5652 5651 5650 5648 5647 5645 5644 5645 5645 5646 5646 5645 5643 5642 5641 5639 5636 5634 5632 5631 5631 5631 5631 5631 5631 5630 5629
5691 5687 5684 5681 5678 5676 5672 5669 5666 5663 5660 5656 5653 5650 5648 5647 5645 5644 5643 5642 5641 5639 5638 5639 5638 5638 5638 5636 5635 5634 5632 5629 5627 5625 5623 5622 5622 5622 5622 5621 5621 5621 5621
5682 5679 5676 5673 5671 5668 5665 5663 5659 5656 5653 5650 5646 5642 5640 5638 5637 5636 5635 5634 5633 5632 5630 5630 5630 5630 5629 5628 5626 5625 5623 5621 5618 5616 5615 5614 5614 5613 5612 5611 5610 5610 5610
5674 5671 5668 5666 5663 5660 5657 5655 5652 5650 5647 5644 5640 5637 5633 5631 5631 5630 5627 5626 5625 5624 5622 5621 5620 5619 5618 5617 5616 5615 5614 5612 5610 5609 5607 5606 5605 5604 5603 5603 5601 5600 5599
5666 5663 5661 5658 5655 5652 5649 5647 5646 5644 5642 5640 5637 5633 5630 5628 5626 5624 5622 5620 5619 5617 5614 5611 5610 5609 5608 5607 5606 5605 5604 5603 5602 5600 5599 5597 5596 5595 5594 5594 5593 5592 5592
5660 5657 5654 5651 5648 5645 5642 5639 5636 5635 5634 5632 5630 5627 5624 5622 5619 5617 5615 5613 5611 5609 5606 5604 5602 5601 5600 5599 5597 5596 5596 5595 5594 5593 5591 5590 5589 5587 5586 5585 5585 5585 5585
5655 5652 5649 5645 5643 5640 5637 5634 5631 5628 5626 5624 5622 5620 5618 5615 5612 5609 5607 5604 5602 5601 5599 5597 5596 5595 5593 5592 5591 5589 5588 5587 5586 5585 5584 5583 5582 5580 5578 5578 5578 5578 5578
5648 5645 5642 5639 5637 5634 5631 5628 5625 5622 5619 5616 5614 5612 5610 5607 5605 5602 5600 5596 5595 5594 5593 5591 5590 5589 5587 5586 5585 5583 5582 5580 5579 5578 5577 5576 5575 5574 5573 5573 5572 5572 5572
5641 5641 5638 5633 5630 5626 5623 5620 5616 5614 5612 5609 5607 5605 5603 5599 5597 5595 5593 5591 5589 5588 5587 5586 5584 5583 5581 5580 5578 5577 5575 5574 5573 5571 5571 5570 5569 5568 5568 5567 5567 5566 5566
5634 5632 5631 5626 5622 5619 5615 5612 5610 5607 5605 5603 5601 5601 5598 5594 5592 5590 5588 5586 5584 5583 5582 5580 5579 5577 5575 5574 5572 5571 5570 5568 5568 5567 5566 5565 5564 5563 5562 5561 5561 5560 5560
5627 5624 5621 5617 5615 5612 5608 5606 5603 5600 5598 5596 5594 5593 5591 5587 5585 5583 5582 5581 5579 5578 5576 5574 5572 5571 5570 5568 5567 5565 5564 5563 5562 5561 5561 5560 5559 5558 5557 5556 5555 5554 5553
5620 5616 5613 5610 5607 5604 5601 5598 5595 5593 5591 5588 5587 5585 5583 5581 5579 5578 5576 5575 5574 5572 5570 5568 5566 5565 5564 5562 5561 5560 5559 5558 5557 5556 5555 5554 5553 5553 5552 5550 5550 5549 5548
5614 5610 5606 5602 5599 5596 5593 5590 5588 5585 5583 5581 5580 5578 5576 5574 5573 5572 5571 5570 5568 5566 5564 5562 5560 5559 5558 5556 5555 5554 5553 5553 5552 5551 5550 5549 5548 5548 5546 5545 5544 5544 5543
5607 5603 5599 5596 5593 5589 5586 5583 5581 5579 5577 5575 5573 5571 5569 5568 5566 5565 5564 5563 5562 5560 5558 5556 5554 5553 5552 5551 5550 5548 5548 5548 5547 5546 5545 5544 5544 5543 5542 5541 5539 5538 5537
5601 5597 5593 5589 5586 5583 5580 5577 5574 5572 5570 5568 5566 5564 5562 5560 5559 5557 5556 5555 5554 5553 5552 5550 5548 5547 5546 5545 5544 5543 5543 5543 5542 5541 5540 5539 5539 5539 5537 5536 5535 5534 5533